DLH2KE EDDB-EDDM

Flight info

Callsign DLH2KE
Flight time 0h 47m
Altitude 30000
Route LUROS4N LUROS Y211 BEBKU Z36 MAREM DCT VESUB T106 TUSTO T108 LANDU LANDU2A
Aircraft A321/M-SDE2E3FGIJ1LORWXYZ/HB1

Departure

Time 2026-05-07 21:08
Airport Berlin Brandenburg Airport (EDDB)

Arrival

Time 2026-05-07 21:56
Airport Munich Airport (EDDM)
Time Latitude Longitude Altitude Speed Heading
2026-05-07 20:44 52.36388 13.50592 155 ft 0 kts 69°
2026-05-07 20:59 52.36382 13.50569 155 ft 4 kts 69°
2026-05-07 20:59 52.36373 13.50527 155 ft 4 kts 69°
2026-05-07 20:59 52.36363 13.50486 155 ft 4 kts 69°
2026-05-07 21:00 52.36354 13.50445 155 ft 4 kts 69°
2026-05-07 21:00 52.36344 13.50404 155 ft 4 kts 69°
2026-05-07 21:00 52.36337 13.50371 155 ft 4 kts 79°
2026-05-07 21:00 52.36339 13.50331 155 ft 4 kts 122°
2026-05-07 21:01 52.36356 13.50300 155 ft 4 kts 151°
2026-05-07 21:01 52.36366 13.50293 155 ft 1 kts 159°
2026-05-07 21:02 52.36364 13.50293 155 ft 1 kts 159°
2026-05-07 21:03 52.36338 13.50310 155 ft 7 kts 159°
2026-05-07 21:03 52.36264 13.50356 155 ft 16 kts 159°
2026-05-07 21:03 52.36138 13.50436 155 ft 21 kts 159°
2026-05-07 21:03 52.35994 13.50527 155 ft 23 kts 159°
2026-05-07 21:04 52.35876 13.50601 155 ft 18 kts 159°
2026-05-07 21:04 52.35781 13.50623 155 ft 14 kts 211°
2026-05-07 21:04 52.35738 13.50476 155 ft 16 kts 249°
2026-05-07 21:04 52.35693 13.50286 155 ft 19 kts 249°
2026-05-07 21:05 52.35643 13.50075 155 ft 21 kts 249°
2026-05-07 21:05 52.35587 13.49842 155 ft 23 kts 249°
2026-05-07 21:05 52.35528 13.49592 155 ft 24 kts 249°
2026-05-07 21:05 52.35465 13.49329 154 ft 25 kts 249°
2026-05-07 21:06 52.35404 13.49070 154 ft 23 kts 249°
2026-05-07 21:06 52.35366 13.48910 154 ft 13 kts 248°
2026-05-07 21:06 52.35324 13.48731 154 ft 21 kts 249°
2026-05-07 21:06 52.35274 13.48524 154 ft 13 kts 248°
2026-05-07 21:07 52.35204 13.48488 154 ft 13 kts 160°
2026-05-07 21:07 52.35118 13.48555 154 ft 14 kts 136°
2026-05-07 21:07 52.35090 13.48717 159 ft 16 kts 96°
2026-05-07 21:07 52.35071 13.48905 154 ft 17 kts 111°
2026-05-07 21:08 52.35081 13.49117 154 ft 28 kts 67°
2026-05-07 21:08 52.35260 13.49867 155 ft 111 kts 69°
2026-05-07 21:08 52.35615 13.51376 353 ft 157 kts 69°
2026-05-07 21:08 52.35831 13.53086 1219 ft 159 kts 100°
2026-05-07 21:09 52.35215 13.54650 1815 ft 176 kts 133°
2026-05-07 21:09 52.34241 13.56046 2250 ft 195 kts 137°
2026-05-07 21:09 52.33163 13.57507 2867 ft 202 kts 137°
2026-05-07 21:09 52.32103 13.59027 3616 ft 203 kts 136°
2026-05-07 21:10 52.31154 13.60737 4277 ft 206 kts 117°
2026-05-07 21:10 52.30866 13.63024 4767 ft 216 kts 83°
2026-05-07 21:10 52.31262 13.65478 5189 ft 232 kts 79°
2026-05-07 21:10 52.31166 13.68245 5582 ft 256 kts 105°
2026-05-07 21:11 52.30256 13.70743 6276 ft 268 kts 137°
2026-05-07 21:11 52.28546 13.72056 7052 ft 276 kts 171°
2026-05-07 21:11 52.24656 13.72053 8682 ft 284 kts 182°
2026-05-07 21:12 52.22671 13.71846 9509 ft 287 kts 183°
2026-05-07 21:12 52.20662 13.71638 10295 ft 292 kts 183°
2026-05-07 21:12 52.18566 13.71450 10642 ft 312 kts 182°
2026-05-07 21:12 52.16331 13.71280 10992 ft 328 kts 182°
2026-05-07 21:13 52.14026 13.71122 11626 ft 334 kts 182°
2026-05-07 21:13 52.11685 13.70974 12321 ft 339 kts 182°
2026-05-07 21:13 52.09348 13.70834 13040 ft 342 kts 182°
2026-05-07 21:13 52.06924 13.70695 13789 ft 345 kts 182°
2026-05-07 21:14 52.04513 13.70561 14443 ft 349 kts 182°
2026-05-07 21:14 52.02108 13.70425 15064 ft 352 kts 182°
2026-05-07 21:14 51.99644 13.70283 15692 ft 356 kts 182°
2026-05-07 21:14 51.97150 13.70138 16322 ft 361 kts 182°
2026-05-07 21:15 51.94630 13.69987 16961 ft 364 kts 182°
2026-05-07 21:15 51.92083 13.69834 17599 ft 368 kts 182°
2026-05-07 21:15 51.89516 13.69680 18216 ft 372 kts 182°
2026-05-07 21:15 51.86914 13.69526 18765 ft 376 kts 182°
2026-05-07 21:16 51.84291 13.69371 19292 ft 379 kts 182°
2026-05-07 21:16 51.81642 13.69214 19825 ft 382 kts 182°
2026-05-07 21:16 51.78980 13.69057 20363 ft 386 kts 182°
2026-05-07 21:16 51.76277 13.68898 20900 ft 389 kts 182°
2026-05-07 21:17 51.73553 13.68738 21421 ft 393 kts 182°
2026-05-07 21:17 51.70813 13.68578 21953 ft 395 kts 182°
2026-05-07 21:17 51.68056 13.68417 22483 ft 398 kts 182°
2026-05-07 21:17 51.65273 13.68250 22994 ft 401 kts 182°
2026-05-07 21:18 51.62471 13.68081 23479 ft 405 kts 182°
2026-05-07 21:18 51.59647 13.67915 23893 ft 408 kts 182°
2026-05-07 21:18 51.56797 13.67752 24071 ft 410 kts 182°
2026-05-07 21:18 51.53944 13.67589 24101 ft 410 kts 182°
2026-05-07 21:19 51.51096 13.67430 24108 ft 410 kts 182°
2026-05-07 21:19 51.48249 13.67271 24103 ft 409 kts 182°
2026-05-07 21:19 51.45400 13.67108 24103 ft 410 kts 182°
2026-05-07 21:19 51.42551 13.66939 24104 ft 410 kts 182°
2026-05-07 21:20 51.39700 13.66768 24101 ft 410 kts 182°
2026-05-07 21:20 51.36890 13.66602 24104 ft 410 kts 182°
2026-05-07 21:20 51.34001 13.66435 24103 ft 410 kts 182°
2026-05-07 21:20 51.31148 13.66269 24109 ft 410 kts 182°
2026-05-07 21:21 51.28298 13.66103 24106 ft 410 kts 182°
2026-05-07 21:21 51.25467 13.65940 24443 ft 413 kts 182°
2026-05-07 21:21 51.22587 13.65769 24892 ft 416 kts 182°
2026-05-07 21:21 51.19687 13.65597 25320 ft 419 kts 182°
2026-05-07 21:22 51.16765 13.65430 25746 ft 421 kts 182°
2026-05-07 21:22 51.13825 13.65270 26168 ft 424 kts 182°
2026-05-07 21:22 51.10874 13.65109 26589 ft 427 kts 182°
2026-05-07 21:22 51.07896 13.64946 27004 ft 429 kts 182°
2026-05-07 21:23 51.04898 13.64782 27416 ft 432 kts 182°
2026-05-07 21:23 51.01886 13.64611 27819 ft 434 kts 183°
2026-05-07 21:23 50.98860 13.64435 28210 ft 437 kts 183°
2026-05-07 21:23 50.95811 13.64256 28608 ft 440 kts 183°
2026-05-07 21:24 50.92745 13.64080 29002 ft 442 kts 183°
2026-05-07 21:24 50.89657 13.63906 29389 ft 445 kts 183°
2026-05-07 21:24 50.86553 13.63734 29778 ft 448 kts 183°
2026-05-07 21:24 50.83436 13.63563 30054 ft 450 kts 183°
2026-05-07 21:25 50.80345 13.63395 30086 ft 435 kts 183°
2026-05-07 21:25 50.77373 13.63234 30075 ft 422 kts 184°
2026-05-07 21:25 50.71559 13.62644 30082 ft 416 kts 193°
2026-05-07 21:26 50.66039 13.60114 30086 ft 413 kts 201°
2026-05-07 21:26 50.60557 13.57359 30072 ft 413 kts 200°
2026-05-07 21:27 50.55070 13.54645 30073 ft 413 kts 200°
2026-05-07 21:27 50.49582 13.51933 30077 ft 413 kts 201°
2026-05-07 21:28 50.44109 13.49218 30080 ft 412 kts 201°
2026-05-07 21:28 50.38645 13.46517 30082 ft 412 kts 201°
2026-05-07 21:29 50.33180 13.43823 30082 ft 411 kts 200°
2026-05-07 21:29 50.27724 13.41142 30077 ft 411 kts 201°
2026-05-07 21:30 50.22270 13.38459 30074 ft 411 kts 200°
2026-05-07 21:30 50.16812 13.35780 30070 ft 411 kts 200°
2026-05-07 21:31 50.11355 13.33114 30070 ft 411 kts 200°
2026-05-07 21:31 50.05939 13.30484 30072 ft 410 kts 200°
2026-05-07 21:32 50.00505 13.27841 30077 ft 409 kts 200°
2026-05-07 21:32 49.95080 13.25215 30079 ft 408 kts 200°
2026-05-07 21:33 49.89661 13.22584 30087 ft 407 kts 201°
2026-05-07 21:33 49.84257 13.19960 30090 ft 406 kts 200°
2026-05-07 21:34 49.78880 13.17369 30097 ft 405 kts 200°
2026-05-07 21:34 49.76171 13.16070 29554 ft 410 kts 200°
2026-05-07 21:34 49.73466 13.14779 29105 ft 403 kts 200°
2026-05-07 21:35 49.70810 13.13511 28689 ft 396 kts 200°
2026-05-07 21:35 49.68200 13.12264 28261 ft 389 kts 200°
2026-05-07 21:35 49.65631 13.11037 27857 ft 383 kts 200°
2026-05-07 21:35 49.63106 13.09830 27475 ft 377 kts 200°
2026-05-07 21:36 49.60619 13.08637 27093 ft 371 kts 200°
2026-05-07 21:36 49.58171 13.07466 26717 ft 366 kts 200°
2026-05-07 21:36 49.56566 13.06701 26468 ft 363 kts 200°
2026-05-07 21:36 49.54172 13.05561 26088 ft 357 kts 200°
2026-05-07 21:37 49.51811 13.04438 25714 ft 353 kts 200°
2026-05-07 21:37 49.49486 13.03333 25349 ft 348 kts 200°
2026-05-07 21:37 49.47179 13.02241 24975 ft 345 kts 200°
2026-05-07 21:37 49.44160 13.00810 24453 ft 341 kts 200°
2026-05-07 21:38 49.42633 13.00082 24192 ft 339 kts 201°
2026-05-07 21:38 49.40479 12.98699 23813 ft 334 kts 209°
2026-05-07 21:38 49.38393 12.97164 23379 ft 332 kts 208°
2026-05-07 21:38 49.36315 12.95646 22975 ft 330 kts 208°
2026-05-07 21:39 49.34249 12.94137 22591 ft 345 kts 208°
2026-05-07 21:39 49.32041 12.92525 22166 ft 354 kts 208°
2026-05-07 21:39 49.29788 12.90886 21736 ft 354 kts 208°
2026-05-07 21:39 49.27597 12.89295 21310 ft 352 kts 208°
2026-05-07 21:40 49.24649 12.87161 20725 ft 349 kts 208°
2026-05-07 21:40 49.23203 12.86116 20449 ft 346 kts 208°
2026-05-07 21:40 49.21038 12.84554 20026 ft 342 kts 208°
2026-05-07 21:40 49.19104 12.83157 19642 ft 340 kts 208°
2026-05-07 21:41 49.16955 12.81596 19225 ft 354 kts 209°
2026-05-07 21:41 49.14643 12.79902 18763 ft 378 kts 208°
2026-05-07 21:41 49.12254 12.78164 18268 ft 382 kts 208°
2026-05-07 21:41 49.09859 12.76436 17768 ft 381 kts 208°
2026-05-07 21:42 49.07465 12.74717 17291 ft 378 kts 208°
2026-05-07 21:42 49.05094 12.73012 16815 ft 376 kts 208°
2026-05-07 21:42 49.02736 12.71315 16349 ft 373 kts 208°
2026-05-07 21:42 49.00400 12.69638 15877 ft 370 kts 208°
2026-05-07 21:43 48.98085 12.67978 15419 ft 367 kts 208°
2026-05-07 21:43 48.95781 12.66326 14962 ft 364 kts 208°
2026-05-07 21:43 48.93497 12.64691 14499 ft 362 kts 207°
2026-05-07 21:43 48.91227 12.63061 14047 ft 360 kts 207°
2026-05-07 21:44 48.88970 12.61433 13556 ft 357 kts 207°
2026-05-07 21:44 48.86740 12.59821 13051 ft 354 kts 208°
2026-05-07 21:44 48.84519 12.58220 12552 ft 351 kts 208°
2026-05-07 21:44 48.82317 12.56640 12056 ft 347 kts 208°
2026-05-07 21:45 48.80141 12.55102 11572 ft 343 kts 208°
2026-05-07 21:45 48.77984 12.53586 11096 ft 341 kts 208°
2026-05-07 21:45 48.75838 12.52084 10635 ft 338 kts 207°
2026-05-07 21:45 48.73707 12.50596 10164 ft 336 kts 207°
2026-05-07 21:46 48.71589 12.49121 9674 ft 334 kts 207°
2026-05-07 21:46 48.69514 12.47677 9182 ft 331 kts 207°
2026-05-07 21:46 48.67429 12.46223 8674 ft 329 kts 207°
2026-05-07 21:46 48.65361 12.44776 8179 ft 326 kts 207°
2026-05-07 21:47 48.63281 12.43315 7861 ft 325 kts 207°
2026-05-07 21:47 48.61263 12.41886 7600 ft 324 kts 207°
2026-05-07 21:47 48.59231 12.40428 7351 ft 323 kts 207°
2026-05-07 21:47 48.57207 12.38971 7098 ft 322 kts 207°
2026-05-07 21:48 48.55190 12.37513 6849 ft 321 kts 207°
2026-05-07 21:48 48.53180 12.36056 6592 ft 318 kts 207°
2026-05-07 21:48 48.51231 12.34641 6356 ft 304 kts 207°
2026-05-07 21:48 48.49366 12.33288 6088 ft 292 kts 207°
2026-05-07 21:49 48.47582 12.31990 5826 ft 281 kts 208°
2026-05-07 21:49 48.46044 12.30321 5580 ft 268 kts 229°
2026-05-07 21:49 48.44900 12.28162 5324 ft 261 kts 234°
2026-05-07 21:49 48.43824 12.25977 5088 ft 259 kts 234°
2026-05-07 21:50 48.42760 12.23795 4973 ft 259 kts 234°
2026-05-07 21:50 48.41697 12.21593 4992 ft 261 kts 234°
2026-05-07 21:50 48.40642 12.19390 4989 ft 254 kts 234°
2026-05-07 21:50 48.39656 12.17291 4992 ft 237 kts 239°
2026-05-07 21:51 48.39136 12.15014 5000 ft 230 kts 262°
2026-05-07 21:51 48.38959 12.12622 5000 ft 230 kts 264°
2026-05-07 21:51 48.38793 12.10270 4992 ft 219 kts 263°
2026-05-07 21:51 48.38632 12.08065 4883 ft 207 kts 263°
2026-05-07 21:52 48.38476 12.05949 4629 ft 200 kts 263°
2026-05-07 21:52 48.38325 12.03914 4378 ft 191 kts 263°
2026-05-07 21:52 48.38182 12.01992 4119 ft 184 kts 263°
2026-05-07 21:52 48.38041 12.00104 3876 ft 181 kts 263°
2026-05-07 21:53 48.37902 11.98210 3636 ft 183 kts 263°
2026-05-07 21:53 48.37759 11.96310 3390 ft 180 kts 263°
2026-05-07 21:53 48.37623 11.94502 3206 ft 171 kts 263°
2026-05-07 21:53 48.37492 11.92779 2913 ft 157 kts 264°
2026-05-07 21:54 48.37374 11.91214 2691 ft 145 kts 264°
2026-05-07 21:54 48.37266 11.89756 2504 ft 142 kts 264°
2026-05-07 21:54 48.37155 11.88281 2331 ft 142 kts 264°
2026-05-07 21:54 48.37042 11.86801 2135 ft 143 kts 264°
2026-05-07 21:55 48.36932 11.85321 1944 ft 143 kts 264°
2026-05-07 21:55 48.36818 11.83828 1743 ft 144 kts 264°
2026-05-07 21:55 48.36707 11.82342 1570 ft 142 kts 264°
2026-05-07 21:55 48.36597 11.80943 1477 ft 123 kts 265°
2026-05-07 21:56 48.36521 11.79956 1476 ft 49 kts 261°
2026-05-07 21:56 48.36401 11.79602 1479 ft 27 kts 233°
2026-05-07 21:56 48.36312 11.79421 1479 ft 17 kts 234°
2026-05-07 21:56 48.36224 11.79301 1480 ft 18 kts 193°
2026-05-07 21:57 48.36102 11.79316 1482 ft 12 kts 174°
2026-05-07 21:57 48.36014 11.79329 1478 ft 14 kts 173°
2026-05-07 21:57 48.35918 11.79363 1475 ft 14 kts 144°
2026-05-07 21:57 48.35850 11.79453 1477 ft 15 kts 169°
2026-05-07 21:58 48.35741 11.79472 1481 ft 17 kts 173°
2026-05-07 21:58 48.35615 11.79494 1476 ft 19 kts 173°
2026-05-07 21:58 48.35473 11.79519 1478 ft 18 kts 173°
2026-05-07 21:58 48.35392 11.79598 1483 ft 15 kts 162°
2026-05-07 21:59 48.35297 11.79617 1480 ft 14 kts 173°
2026-05-07 21:59 48.35239 11.79655 1483 ft 8 kts 102°
2026-05-07 21:59 48.35244 11.79749 1475 ft 7 kts 84°
2026-05-07 21:59 48.35245 11.79770 1482 ft 0 kts 83°